Regional Weather Roundup
Issued by NWS

Home | Current Version | Previous Version | Graphics & Text | Print | Product List | Glossary On
Versions: 1 2 3 4 5 6 7 8 9 10 11 12 13 14 15 16 17 18 19 20 21 22 23 24 25 26 27 28 29 30 31 32 33 34 35 36 37 38 39 40 41 42 43 44 45 46 47 48 49 50
041
ASUS44 KJAN 240803
RWRMS

MISSISSIPPI HOURLY WEATHER ROUNDUP
NATIONAL WEATHER SERVICE JACKSON MS
300 AM CDT THU APR 24 2014

NOTE: "FAIR: INDICATES FEW OR NO CLOUDS BELOW 12,000 FEET WITH NO
SIGNIFICANT WEATHER AND/OR OBSTRUCTIONS TO VISIBILITY.

MSZ001>002-007>008-010>013-018>021-025>028-034>036-240900-
NORTHWEST MISSISSIPPI

CITY           SKY/WX    TMP DP  RH WIND       PRES   REMARKS
CLARKSDALE       N/A     55  46  71 CALM      29.91R
CLEVELAND      FAIR      60  48  65 SE6       29.88S
GREENWOOD      CLEAR     55  45  68 CALM      29.90F
GREENVILLE     CLEAR     60  47  61 SE8       29.87F
GRENADA        FAIR      46  46 100 CALM      29.92R
OLIVE BRANCH   CLEAR     50  43  76 E6        29.92S
OXFORD         FAIR      55  41  58 CALM      29.93F
TUNICA         SUNNY     54  45  71 E5        29.92S
$$

MSZ003>006-009-014>017-022>024-029>033-037>039-240900-
NORTHEAST MISSISSIPPI

CITY           SKY/WX    TMP DP  RH WIND       PRES   REMARKS
BELMONT        FAIR      45  44  96 CALM      29.95S
COLUMBUS AFB   CLEAR     47  47  99 CALM      29.94R
CORINTH        FAIR      45  43  93 CALM      29.95F
GOLDN TRIANGLE CLEAR     52  45  76 E3        29.96S
STARKVILLE     FAIR      48  45  87 CALM      29.93S
TUPELO         CLEAR     46  43  89 NE3       29.93F
$$

MSZ040-058-240900-
CENTRAL MISSISSIPPI

CITY           SKY/WX    TMP DP  RH WIND       PRES   REMARKS
JACKSON INTL   CLEAR     56  51  84 CALM      29.90F
JACKSON HAWKNS CLEAR     61  48  62 E5        29.90F
MERIDIAN KEY   MOCLDY    55  52  89 CALM      29.92F
MERIDIAN NAS   MOCLDY    53  50  89 CALM      29.93S
RAYMOND        FAIR      52  48  87 CALM      29.90F FOG
VICKSBURG      CLEAR     57  55  93 E3        29.88F
$$

MSZ059>079-240900-
SOUTH MISSISSIPPI

CITY           SKY/WX    TMP DP  RH WIND       PRES   REMARKS
BROOKHAVEN     FAIR      57  55  94 CALM      29.93S
HATTIESBURG    PTCLDY    61  59  93 CALM      29.93R
MCCOMB         CLEAR     64  60  87 W5        29.91F
NATCHEZ        CLEAR     55  48  76 CALM      29.90S
PINE BELT      PTCLDY    57  55  94 CALM      29.93R
$$

MSZ080>082-240900-
COASTAL MISSISSIPPI

CITY           SKY/WX    TMP DP  RH WIND       PRES   REMARKS
BILOXI         CLEAR     66  66 100 W2        29.92R
PASCAGOULA     PTCLDY    59  59 100 CALM      29.92R FOG
GULFPORT       CLEAR     65  61  87 CALM      29.91S FOG
$$



USA.gov is the U.S. government's official web portal to all federal, state and local government web resources and services.